This is the latest recevied weather packets stored in our database for station/object MM9SQL. If no packets are shown the sender has not sent any weather packets the latest 10 day(s).
| Time | Temp. | Humidity | Pressure | Rain* | Wind** | Luminosity | Snow |
|---|---|---|---|---|---|---|---|
| 1778252104 | 14.44° C | 52% | 1015.6 hPa | 0 mm | - | - | - |
| 1778251203 | 14.44° C | 54% | 1015.5 hPa | 0 mm | - | - | - |
| 1778250905 | 13.89° C | 53% | 1015.5 hPa | 0 mm | - | - | - |
| 1778248510 | 13.89° C | 53% | 1015 hPa | 0 mm | - | - | - |
| 1778248202 | 14.44° C | 54% | 1014.9 hPa | 0 mm | - | - | - |
| 1778243703 | 13.89° C | 52% | 1014.2 hPa | 0 mm | - | - | - |
| 1778243107 | 14.44° C | 50% | 1014.1 hPa | 0 mm | - | - | - |
| 1778240107 | 13.33° C | 50% | 1013.6 hPa | 0 mm | - | - | - |
| 1778239507 | 13.89° C | 52% | 1013.6 hPa | 0 mm | - | - | - |
| 1778239208 | 13.33° C | 53% | 1013.5 hPa | 0 mm | - | - | - |
| 1778238304 | 12.78° C | 52% | 1013.4 hPa | 0 mm | - | - | - |
| 1778235908 | 12.78° C | 58% | 1013.2 hPa | 0 mm | - | - | - |
| 1778233803 | 11.67° C | 58% | 1013.1 hPa | 0 mm | - | - | - |
| 1778232603 | 11.11° C | 59% | 1012.8 hPa | 0 mm | - | - | - |
| 1778230203 | 11.11° C | 62% | 1012.5 hPa | 0 mm | - | - | - |
| 1778225704 | 10° C | 67% | 1011.7 hPa | 0 mm | - | - | - |
| 1778223302 | 9.44° C | 71% | 1011.1 hPa | 0 mm | - | - | - |
| 1778222706 | 9.44° C | 73% | 1011.1 hPa | 0 mm | - | - | - |
| 1778218801 | 8.89° C | 73% | 1010.5 hPa | 0 mm | - | - | - |
| 1778218502 | 8.89° C | 74% | 1010.3 hPa | 0 mm | - | - | - |
| 1778218202 | 8.89° C | 75% | 1010.2 hPa | 0 mm | - | - | - |
| 1778215518 | 8.89° C | 76% | 1010.1 hPa | 0 mm | - | - | - |
| 1778208308 | 10° C | 71% | 1009.4 hPa | 0 mm | - | - | - |
| 1778194509 | 10° C | 65% | 1009 hPa | 0 mm | - | - | - |
| 1778187302 | 10.56° C | 69% | 1009.2 hPa | 0 mm | - | - | - |
* Rain latest hour (hover to see other rain measurements)
** Current wind speed in m/s (hover to see current wind gust speed)